CamptonHillsWeather.com

Find the Weather for any City, State  
or Zipcode, or Country:

Campton Hills, IL Weather
Local Radar

Local Radar

Graphs, Details
Graphs and Gauges
Detailed Weather
Detailed Reports
Ajax Version (old)
Central Kane Co Summary
Davis Current Weather Graphs
Davis 24 Hour Weather History

CW3778 Data

Weather Underground
Maps
Temperature
Heat Index
Windchill
Humidity
Radar
Dew Point
Wind
Visibility
Visible Satellite
Satellite
Fronts
Snow Depth
Jet Stream
Flight Rules
Forecast Maps
Temperature Forecast
Maximum Temperature Forecast
Minimum Temperature Forecast
Dewpoint Forecast
Prevalent Weather
12Hr Probability of Precip.
Sky Cover
Health Maps
UV Forecast
Air Quality
Peak Air Quality Index
Weather Station
Davis Instruments Vantage Pro
Current Conditions [Select Refresh to Update]

Updated: 6:25am on 1/30/15

(location)
Currently:
21.1F

Clear
Overcast

High: 29.0 F< 
(12:00am
Low: 21.1 F 
(6:25am)
Wind: N 5 mph
Light Breeze
Gust: 6 mph
Today's High Wind: 12 mph (12:00am)
Humidity: 76%
Pressure: 30.52 in  (Rising
Pressure Rate: 0.028 in/hr
Dew Point: 14.7F
Wind Chill: 14.3 F
Heat Index (feels like): 24.8 F
Comfort Level: Uncomfortably Cold
Temperature Rate:  -1.97F/hr
 
5 Day Forecast
 
Fri Sat Sun Mon Tue
Clear Clear Clear Clear Clear
Partly Cloudy Mostly Cloudy Snow Clear Partly Cloudy
27 37 25 23 37
16 23 7 9 14

Records and Normals
 
Temperature Forecast Normal Record
High 27 0 0
(0)
Low 16 0 0
(0)
 
Links
 
 
Weather Advisories
Warning Date: 4:33 am EST on January 30, 2015/
Warning Description: Special Statement
Full Advisory Text...
Weather Map

Web Cam

Almanac
 
Sunrise:  
7:06am
Moonrise: 
1:40pm

Moon Phase:
77%

Sunset: 
5:04pm
Moonset:  
3:38am
 Star Chart...
Rainfall Totals
Hourly Rain 0.00 in
Daily Rain: 0.00 in
Monthly Rain: 0.81 in
Yearly Rain: 0.81 in
Normal Rain, month to date: 0.00 in
Normal Rain, year to date: 0.00 in
Link to Village of Campton Hills Map

Link to Counties of Illinois Map

Local Weather Exchange Network
Station ID City 
(Click for Map Location)
Neighborhood 
(Click for History)
Last Update (Date & Time) Temperature
 ()
Dew
Point ()
Humidity 
(%)
Wind 
(mph)
from the Wind Gust 
(mph) 
Pressure(in) Hourly
Rain(in)
MD5528 Wasco APRSWXNET Campton Hills IL US 01/30 05:23:00 23.0 12.0 62 2 NNW 0 30.47 0.00
KILSTCHA10 St. Charles Hunt Club 01/30 06:19:50 23.5 6.0 46 0 NE 0 29.98 0.00
KILSAINT8 Saint Charles St. Charles Near West Side 01/30 06:12:44 22.6 10.0 59 1 NNE 0 30.25 0.00
KILWAYNE4 Wayne Hampton Course 01/30 06:16:14 24.8 15.0 67 0 North 0 30.57 0.00
KILSAINT7 Saint Charles Silver Glen 01/30 06:17:52 23.5 4.0 43 1 NE 2 30.35 0.00
KILCAMPT3 Campton Hills Campton Hills 01/30 06:19:57 23.0 12.0 63 0 NNW 0 30.54 0.00
KILSAINT6 Saint Charles 3 Lakes 01/30 06:15:02 21.9 11.0 62 4 NNE 0 30.25 0.00
KILSAINT9 Saint Charles Fox Chase 01/30 06:19:59 23.9 6.0 45 0 North 0 30.43 0.00
KILGENEV6 Geneva Dover Ridge 01/30 06:19:53 23.9 13.0 63 6 NW 6 30.50 0.00
MD8922 Geneva APRSWXNET Geneva IL US 01/30 05:32:00 24.0 13.0 63 3 North 6 30.47 0.00
KILSTCHA8 St. Charles Ronzheimer Ave. & S. Tyler Rd. 01/30 06:19:55 23.4 13.0 65 2 NNE 4 30.49 0.00
KILGENEV9 Geneva Saint Andrews Circle 01/30 06:16:38 23.7 14.0 66 0 North 0 30.53 0.00
KILGENEV3 Geneva Mill Creek (NE) 01/30 06:19:57 23.9 15.0 68 0 NW 4 30.58 0.00
MC3778 Wasco APRSWXNET St. Charles IL US 01/30 05:48:00 23.0 14.0 69 3 North 4 30.50 0.00
KILSTCHA1 St Charles CamptonHillsWeather.com Central Kane County 01/30 06:19:51 21.3 15.0 76 3 North 6 30.52 0.00
KILGENEV7 Geneva Eldorado Drive 01/30 06:16:19 24.1 18.0 76 0 North 0 30.39 0.00
KILGENEV8 Geneva Alexander Drive 01/30 06:16:31 21.2 13.0 70 0 North 0 29.04 0.00
KILSOUTH5 South Elgin Concord Park 01/30 06:13:13 22.6 12.0 62 2 NE 0 30.23 0.00
KILGENEV2 Geneva Mill Creek 01/30 06:05:45 23.2 14.0 67 1 NW 5 30.46 0.00
ME3506 Lafox APRSWXNET Geneva IL US 01/30 05:20:00 23.0 13.0 64 3 NW 6 30.44 0.00
MC0571 Batavia APRSWXNET Batavia IL US 01/30 05:32:00 24.0 11.0 57 0 North 0 30.50 0.00
KILBATAV1 Batavia Tri-Cities on the Fox River 01/30 06:19:09 24.1 11.0 57 0 North 0 30.52 0.00
KILELGIN16 Elgin Providence Subdivision 01/30 06:08:11 21.7 11.0 64 3 NW 0 30.23 0.00
KILELBUR10 Elburn Prairie Valley North 01/30 06:19:51 18.9 14.0 80 6 West 6 30.55 0.00
KILELBUR9 Elburn Griffith Avenue 01/30 05:10:56 25.0 16.0 67 0 North 0 29.64 0.00
KILELBUR5 Elburn Prairie Highlands 01/30 06:15:16 21.5 16.0 79 4 NW 10 30.52 0.00
MD7322 Elburn APRSWXNET Elburn IL US 01/30 05:25:00 23.0 17.0 77 1 NW 3 30.48 0.00
ME5791 Mooseheart APRSWXNET Batavia IL US 01/30 05:34:00 23.0 13.0 66 2 North 0 30.47 0.00
KILBATAV3 Batavia West Batavia 01/30 06:19:39 23.7 15.0 68 1 North 0 30.49 0.00
KILELBUR6 Elburn Columbine Square 01/30 06:09:19 19.8 14.0 79 3 NW 7 30.47 0.00
ME4224 Elburn APRSWXNET Elburn IL US 01/30 05:24:00 22.0 15.0 73 3 North 11 30.44 0.00
KILBATAV5 Batavia Fermi National Accelerator Laboratory 01/30 06:07:42 23.4 14.0 68 4 North 14 30.46 0.00
ME4225 Campton Hills APRSWXNET Elburn IL US 01/30 05:28:00 23.0 16.0 73 4 NW 9 30.46 0.00
KILELBUR8 Elburn Columbine 01/30 06:12:52 20.9 14.0 76 9 NNW 12 30.49 0.00
KILWESTC5 West Chicago THEBROWNHOUSE.ORG 01/30 06:19:47 18.6 0.0 44 0 North 0 30.44 0.00
KILWESTC8 West Chicago Ingalton Hills Estates 01/30 06:19:56 20.0 12.0 70 2 SW 0 30.67 0.00
KILNORTH11 North Aurora Waterford Oaks 01/30 06:19:48 23.8 15.0 69 2 NW 4 30.50 0.00
MUP188 Elburn MesoWest ELBRN1 IL US UPR 01/30 04:45:00 25.0 0.0 0 0 North 0 0.00 0.00
KDPA Chicago DuPage Official Station 01/30 05:52:00 23.0 10.0 58 12 North --- 30.49 ---
KARR Aurora Official Station 01/30 05:52:00 23.0 16.0 74 14 NNW --- 30.50 ---
Full Advisory Text
Warning Description: Special Statement

Warning Date: 4:33 am EST on January 30, 2015/

WarningSum:...Accumulating Snow Likely Saturday Night And Sunday...

Warning Message:Snow is likely to overspread the region Saturday evening and
continue into Sunday...likely depositing at least several inches
of snow across much of the region. Low pressure is forecast to
organize over Colorado Saturday and then track east into the Ohio
River valley by Sunday...producing a large swath of accumulating
snow across the Midwest. The storm system is originating from a
complex series of upper level disturbances that have yet to fully
evolve...meaning it is quite possible that later forecasts could
change. Current indications are that much of northern and central
Illinois and Indiana will see 3 to 6 inches of snow...with locally
heavier totals possible. The snow will fall over an extended
period of time likely affecting travel Saturday night through
Sunday evening.
Persons planning travel this weekend should closely monitor later
forecast and statement on this developing winter storm. 
Izzi
Visit US at http://weather.Gov/Chicago (all lowercase)
Follow US on facebook...twitter...and youtube at:
www.Facebook.Com/nwschicago.Gov
www.Twitter.Com/nwschicago
        

Ambient Weather and Weather Underground
 Never base important decisions on this or any weather information obtained from the Internet
Updated Automatically by Ambient Weather's Virtual Weather Station  V13.01